Location: Unspecified
(50.0077°N, 36.2988°E)
Time: 21:39:26
(UTC+00:00)

ISS - Pass Details

Date: 29 September 2020
Orbit: 417 x 420 km, 51.6° (Epoch: 27 October)

Event Time Altitude Azimuth Distance (km) Brightness Sun altitude
Rises 17:31:43 0° 287° (WNW) 2,371 1.6 -22.0°
Reaches altitude 10° 17:33:50 10° 285° (WNW) 1,505 0.2 -22.3°
Enters shadow 17:36:27 48° 261° (W) 562 -2.9 -22.7°
